iso_date,epoch_date,Year,Hour,Min,DOY,POS_DOY,Lat,Lon,BP,Ts,Ta,has_bp,has_ts,has_ta,BuoyID,Buoy_Type,Buoy_Owner,Logistics,Hemisphere
2016-09-17T13:36:28Z,1474119389,2016,13,37,261.567,258.723,86.3212,57.786,1010.4,-2.2,-1.2,yes,yes,yes,300234064011000,Snow_Buoy,AWI-USIABP,unknown,North
2016-09-17T13:59:31Z,1474120771,2016,14,0,261.583,261.583,86.3234,57.8534,1010.1,-2.1,-1.3,yes,yes,yes,300234064011000,Snow_Buoy,AWI-USIABP,unknown,North
2016-09-17T15:00:00Z,1474124400,2016,15,0,261.625,261.625,86.3386,57.854,1009.7,-1.8,-1.1,yes,yes,yes,300234064011000,Snow_Buoy,AWI-USIABP,unknown,North
2016-09-17T16:00:28Z,1474128029,2016,16,0,261.667,261.667,86.349,57.863,1009.1,-1.5,-1.0,yes,yes,yes,300234064011000,Snow_Buoy,AWI-USIABP,unknown,North
2016-09-17T17:00:57Z,1474131658,2016,17,1,261.709,261.709,86.3562,57.9176,1008.6,-1.4,-0.9,yes,yes,yes,300234064011000,Snow_Buoy,AWI-USIABP,unknown,North
2016-09-17T18:01:26Z,1474135286,2016,18,1,261.751,261.751,86.3706,57.8978,1007.6,-1.2,-0.8,yes,yes,yes,300234064011000,Snow_Buoy,AWI-USIABP,unknown,North
2016-09-17T19:01:55Z,1474138915,2016,19,2,261.793,261.793,86.3808,57.9744,1006.7,-1.1,-0.8,yes,yes,yes,300234064011000,Snow_Buoy,AWI-USIABP,unknown,North
2016-09-17T20:02:24Z,1474142544,2016,20,2,261.835,261.835,86.4622,57.6606,1006.0,-0.9,-0.6,yes,yes,yes,300234064011000,Snow_Buoy,AWI-USIABP,unknown,North
2016-09-17T21:01:26Z,1474146086,2016,21,2,261.876,261.876,86.5176,59.2962,1005.2,-0.8,-0.6,yes,yes,yes,300234064011000,Snow_Buoy,AWI-USIABP,unknown,North
2016-09-17T22:01:55Z,1474149715,2016,22,2,261.918,261.918,86.587,59.9104,1004.1,-0.7,-0.3,yes,yes,yes,300234064011000,Snow_Buoy,AWI-USIABP,unknown,North
2016-09-17T23:00:57Z,1474153258,2016,23,1,261.959,261.959,86.6808,60.4546,1003.1,-0.6,-0.3,yes,yes,yes,300234064011000,Snow_Buoy,AWI-USIABP,unknown,North
2016-09-18T00:01:26Z,1474156886,2016,0,1,262.001,262.001,86.7132,61.003,1001.3,-0.4,0.0,yes,yes,yes,300234064011000,Snow_Buoy,AWI-USIABP,unknown,North
2016-09-18T01:00:28Z,1474160429,2016,1,1,262.042,262.042,86.72,61.0668,1000.1,0.0,0.4,yes,yes,yes,300234064011000,Snow_Buoy,AWI-USIABP,unknown,North
2016-09-18T01:59:31Z,1474163971,2016,2,0,262.083,262.083,86.7106,61.34,999.1,0.3,0.8,yes,yes,yes,300234064011000,Snow_Buoy,AWI-USIABP,unknown,North
2016-09-18T03:01:26Z,1474167686,2016,3,1,262.126,262.126,86.7178,61.4168,998.2,0.7,1.0,yes,yes,yes,300234064011000,Snow_Buoy,AWI-USIABP,unknown,North
2016-09-18T04:00:28Z,1474171229,2016,4,1,262.167,262.167,86.725,61.5138,997.5,0.7,1.1,yes,yes,yes,300234064011000,Snow_Buoy,AWI-USIABP,unknown,North
2016-09-18T05:00:57Z,1474174858,2016,5,1,262.209,262.209,86.7316,61.6422,997.2,0.7,1.1,yes,yes,yes,300234064011000,Snow_Buoy,AWI-USIABP,unknown,North
2016-09-18T06:01:26Z,1474178486,2016,6,1,262.251,262.251,86.7378,61.7934,996.8,0.9,1.4,yes,yes,yes,300234064011000,Snow_Buoy,AWI-USIABP,unknown,North
2016-09-18T07:00:28Z,1474182029,2016,7,0,262.292,262.292,86.743,61.9588,996.7,0.9,1.4,yes,yes,yes,300234064011000,Snow_Buoy,AWI-USIABP,unknown,North
2016-09-18T07:59:31Z,1474185571,2016,8,0,262.333,262.333,86.7128,61.6876,996.6,1.0,1.5,yes,yes,yes,300234064011000,Snow_Buoy,AWI-USIABP,unknown,North
2016-09-18T09:01:26Z,1474189286,2016,9,1,262.376,262.376,86.7022,61.1576,996.6,1.1,1.4,yes,yes,yes,300234064011000,Snow_Buoy,AWI-USIABP,unknown,North
2016-09-18T10:00:28Z,1474192829,2016,10,0,262.417,262.417,86.7064,61.2864,996.5,1.2,1.5,yes,yes,yes,300234064011000,Snow_Buoy,AWI-USIABP,unknown,North
2016-09-18T11:00:57Z,1474196458,2016,11,1,262.459,262.459,86.7108,61.3892,996.6,1.2,1.4,yes,yes,yes,300234064011000,Snow_Buoy,AWI-USIABP,unknown,North
2016-09-18T12:00:00Z,1474200000,2016,12,0,262.5,262.5,86.7154,61.4832,996.5,1.3,1.4,yes,yes,yes,300234064011000,Snow_Buoy,AWI-USIABP,unknown,North
2016-09-18T13:00:28Z,1474203629,2016,13,0,262.542,262.542,86.7214,61.6262,996.2,1.1,1.0,yes,yes,yes,300234064011000,Snow_Buoy,AWI-USIABP,unknown,North
2016-09-18T13:59:31Z,1474207171,2016,14,0,262.583,262.583,86.7302,61.6204,996.8,0.9,0.9,yes,yes,yes,300234064011000,Snow_Buoy,AWI-USIABP,unknown,North
2016-09-18T15:00:00Z,1474210800,2016,15,0,262.625,262.625,86.7354,61.4624,997.1,0.9,0.9,yes,yes,yes,300234064011000,Snow_Buoy,AWI-USIABP,unknown,North
2016-09-18T16:00:28Z,1474214429,2016,16,0,262.667,262.667,86.708,61.3434,997.3,0.9,1.1,yes,yes,yes,300234064011000,Snow_Buoy,AWI-USIABP,unknown,North
2016-09-18T16:59:31Z,1474217971,2016,17,0,262.708,262.708,86.7088,61.45,997.5,1.0,1.2,yes,yes,yes,300234064011000,Snow_Buoy,AWI-USIABP,unknown,North
2016-09-18T18:00:00Z,1474221600,2016,18,0,262.75,262.75,86.7104,61.549,997.3,1.0,1.2,yes,yes,yes,300234064011000,Snow_Buoy,AWI-USIABP,unknown,North
2016-09-18T19:00:28Z,1474225229,2016,19,0,262.792,262.792,86.7046,61.4102,996.9,1.1,1.3,yes,yes,yes,300234064011000,Snow_Buoy,AWI-USIABP,unknown,North
2016-09-18T19:59:31Z,1474228771,2016,20,0,262.833,262.833,86.711,61.346,996.6,1.1,1.3,yes,yes,yes,300234064011000,Snow_Buoy,AWI-USIABP,unknown,North
2016-09-18T21:00:00Z,1474232400,2016,21,0,262.875,262.875,86.7082,61.3184,996.3,1.3,1.5,yes,yes,yes,300234064011000,Snow_Buoy,AWI-USIABP,unknown,North
2016-09-18T22:00:28Z,1474236029,2016,22,0,262.917,262.917,86.7138,61.33,995.4,1.3,1.4,yes,yes,yes,300234064011000,Snow_Buoy,AWI-USIABP,unknown,North
2016-09-18T22:59:31Z,1474239571,2016,23,0,262.958,262.958,86.7956,61.5644,994.6,1.2,1.2,yes,yes,yes,300234064011000,Snow_Buoy,AWI-USIABP,unknown,North
2016-09-19T00:00:00Z,1474243200,2016,0,0,263.0,263.0,86.861,61.2912,993.5,1.1,1.2,yes,yes,yes,300234064011000,Snow_Buoy,AWI-USIABP,unknown,North
2016-09-19T01:00:28Z,1474246829,2016,1,0,263.042,263.042,86.847,60.9672,992.5,1.0,1.2,yes,yes,yes,300234064011000,Snow_Buoy,AWI-USIABP,unknown,North
2016-09-19T01:59:31Z,1474250371,2016,2,0,263.083,263.083,86.7628,61.1628,991.7,1.1,1.3,yes,yes,yes,300234064011000,Snow_Buoy,AWI-USIABP,unknown,North
2016-09-19T03:00:00Z,1474254000,2016,3,0,263.125,263.125,86.7992,61.2692,990.8,1.0,1.1,yes,yes,yes,300234064011000,Snow_Buoy,AWI-USIABP,unknown,North
2016-09-19T04:00:28Z,1474257629,2016,4,0,263.167,263.167,86.8138,61.6412,989.8,1.0,1.0,yes,yes,yes,300234064011000,Snow_Buoy,AWI-USIABP,unknown,North
2016-09-19T04:59:31Z,1474261171,2016,5,0,263.208,263.208,86.8182,61.6976,989.0,1.0,1.1,yes,yes,yes,300234064011000,Snow_Buoy,AWI-USIABP,unknown,North
2016-09-19T06:00:00Z,1474264800,2016,6,0,263.25,263.25,86.8224,61.7554,988.2,1.0,1.1,yes,yes,yes,300234064011000,Snow_Buoy,AWI-USIABP,unknown,North
2016-09-19T07:00:28Z,1474268429,2016,7,0,263.292,263.292,86.8258,61.8084,987.4,1.0,1.1,yes,yes,yes,300234064011000,Snow_Buoy,AWI-USIABP,unknown,North
2016-09-19T07:59:31Z,1474271971,2016,8,0,263.333,263.333,86.828,61.849,986.7,1.0,1.1,yes,yes,yes,300234064011000,Snow_Buoy,AWI-USIABP,unknown,North
2016-09-19T09:00:00Z,1474275600,2016,9,0,263.375,263.375,86.8292,61.8746,986.1,1.0,1.0,yes,yes,yes,300234064011000,Snow_Buoy,AWI-USIABP,unknown,North
2016-09-19T10:00:28Z,1474279229,2016,10,0,263.417,263.417,86.8298,61.8856,985.6,1.0,1.0,yes,yes,yes,300234064011000,Snow_Buoy,AWI-USIABP,unknown,North
2016-09-19T10:59:31Z,1474282771,2016,11,0,263.458,263.458,86.8294,61.8752,985.1,1.0,0.9,yes,yes,yes,300234064011000,Snow_Buoy,AWI-USIABP,unknown,North
2016-09-19T12:00:00Z,1474286400,2016,12,0,263.5,263.5,86.8282,61.846,984.9,1.0,1.0,yes,yes,yes,300234064011000,Snow_Buoy,AWI-USIABP,unknown,North
2016-09-19T13:00:28Z,1474290029,2016,13,0,263.542,263.542,86.8278,62.084,984.4,1.0,1.0,yes,yes,yes,300234064011000,Snow_Buoy,AWI-USIABP,unknown,North
2016-09-19T13:59:31Z,1474293571,2016,14,0,263.583,263.583,86.8246,62.0248,984.0,1.0,0.8,yes,yes,yes,300234064011000,Snow_Buoy,AWI-USIABP,unknown,North
2016-09-19T15:00:00Z,1474297200,2016,15,0,263.625,263.625,86.8228,61.8386,983.7,0.9,0.0,yes,yes,yes,300234064011000,Snow_Buoy,AWI-USIABP,unknown,North
2016-09-19T16:00:28Z,1474300829,2016,16,0,263.667,263.667,86.8142,61.8596,983.4,0.2,-0.8,yes,yes,yes,300234064011000,Snow_Buoy,AWI-USIABP,unknown,North
2016-09-19T16:59:31Z,1474304371,2016,17,0,263.708,263.708,86.8036,61.9044,984.1,-0.8,-1.6,yes,yes,yes,300234064011000,Snow_Buoy,AWI-USIABP,unknown,North
2016-09-19T18:00:00Z,1474308000,2016,18,0,263.75,263.75,86.7928,61.726,985.1,-1.4,-2.1,yes,yes,yes,300234064011000,Snow_Buoy,AWI-USIABP,unknown,North
2016-09-19T19:00:28Z,1474311629,2016,19,0,263.792,263.792,86.7124,61.3434,986.2,-2.1,-2.9,yes,yes,yes,300234064011000,Snow_Buoy,AWI-USIABP,unknown,North
2016-09-19T19:59:31Z,1474315171,2016,20,0,263.833,263.833,86.7008,61.273,987.7,-2.5,-2.7,yes,yes,yes,300234064011000,Snow_Buoy,AWI-USIABP,unknown,North
2016-09-19T21:00:00Z,1474318800,2016,21,0,263.875,263.875,86.712,61.3422,988.8,-2.6,-2.6,yes,yes,yes,300234064011000,Snow_Buoy,AWI-USIABP,unknown,North
2016-09-19T22:00:28Z,1474322429,2016,22,0,263.917,263.917,86.7114,61.3276,990.3,-2.2,-1.8,yes,yes,yes,300234064011000,Snow_Buoy,AWI-USIABP,unknown,North
2016-09-19T22:59:31Z,1474325971,2016,23,0,263.958,263.958,86.7104,61.3024,991.1,-2.1,-2.2,yes,yes,yes,300234064011000,Snow_Buoy,AWI-USIABP,unknown,North
2016-09-20T00:00:00Z,1474329600,2016,0,0,264.0,264.0,86.7076,61.307,991.7,-2.4,-2.4,yes,yes,yes,300234064011000,Snow_Buoy,AWI-USIABP,unknown,North
2016-09-20T01:00:28Z,1474333229,2016,1,0,264.042,264.042,86.6928,60.7736,992.8,-2.7,-2.7,yes,yes,yes,300234064011000,Snow_Buoy,AWI-USIABP,unknown,North
2016-09-20T01:59:31Z,1474336771,2016,2,0,264.083,264.083,86.6904,60.645,993.8,-2.7,-2.8,yes,yes,yes,300234064011000,Snow_Buoy,AWI-USIABP,unknown,North
2016-09-20T03:00:00Z,1474340400,2016,3,0,264.125,264.125,86.6866,60.5216,995.0,-2.8,-2.8,yes,yes,yes,300234064011000,Snow_Buoy,AWI-USIABP,unknown,North
2016-09-20T04:00:28Z,1474344029,2016,4,0,264.167,264.167,86.6798,60.4374,996.0,-2.9,-2.7,yes,yes,yes,300234064011000,Snow_Buoy,AWI-USIABP,unknown,North
2016-09-20T04:59:31Z,1474347571,2016,5,0,264.208,264.208,86.6704,60.403,996.9,-2.9,-2.9,yes,yes,yes,300234064011000,Snow_Buoy,AWI-USIABP,unknown,North
2016-09-20T06:00:00Z,1474351200,2016,6,0,264.25,264.25,86.664,60.4212,996.8,-3.5,-4.1,yes,yes,yes,300234064011000,Snow_Buoy,AWI-USIABP,unknown,North
2016-09-20T07:00:28Z,1474354829,2016,7,1,264.292,264.292,86.7432,61.2438,997.8,-4.0,-4.3,yes,yes,yes,300234064011000,Snow_Buoy,AWI-USIABP,unknown,North
2016-09-20T08:00:57Z,1474358458,2016,8,1,264.334,264.334,86.7368,61.1678,999.0,-4.0,-4.2,yes,yes,yes,300234064011000,Snow_Buoy,AWI-USIABP,unknown,North
2016-09-20T09:01:26Z,1474362086,2016,9,1,264.376,264.376,86.7284,61.165,999.7,-4.1,-4.2,yes,yes,yes,300234064011000,Snow_Buoy,AWI-USIABP,unknown,North
2016-09-20T10:00:28Z,1474365629,2016,10,0,264.417,264.417,86.7204,61.1594,1000.6,-4.3,-4.2,yes,yes,yes,300234064011000,Snow_Buoy,AWI-USIABP,unknown,North
2016-09-20T10:59:31Z,1474369171,2016,11,0,264.458,264.458,86.7122,61.1482,1001.6,-4.1,-3.9,yes,yes,yes,300234064011000,Snow_Buoy,AWI-USIABP,unknown,North
2016-09-20T12:01:26Z,1474372886,2016,12,1,264.501,264.501,86.7046,61.1324,1001.7,-4.1,-4.4,yes,yes,yes,300234064011000,Snow_Buoy,AWI-USIABP,unknown,North
2016-09-20T13:00:28Z,1474376429,2016,13,0,264.542,264.542,86.6978,61.0928,1002.5,-4.6,-4.4,yes,yes,yes,300234064011000,Snow_Buoy,AWI-USIABP,unknown,North
2016-09-20T13:59:31Z,1474379971,2016,14,0,264.583,264.583,86.6906,61.075,1003.5,-4.5,-4.4,yes,yes,yes,300234064011000,Snow_Buoy,AWI-USIABP,unknown,North
2016-09-20T15:00:00Z,1474383600,2016,15,0,264.625,264.625,86.6826,61.06,1004.1,-4.4,-4.3,yes,yes,yes,300234064011000,Snow_Buoy,AWI-USIABP,unknown,North
2016-09-20T16:00:28Z,1474387229,2016,16,1,264.667,264.667,86.6748,61.0624,1004.5,-4.5,-4.6,yes,yes,yes,300234064011000,Snow_Buoy,AWI-USIABP,unknown,North
2016-09-20T17:00:57Z,1474390858,2016,17,1,264.709,264.709,86.709,60.8746,1004.9,-4.8,-4.9,yes,yes,yes,300234064011000,Snow_Buoy,AWI-USIABP,unknown,North
2016-09-20T18:01:26Z,1474394486,2016,18,2,264.751,264.751,86.792,60.2976,1005.9,-5.3,-5.6,yes,yes,yes,300234064011000,Snow_Buoy,AWI-USIABP,unknown,North
2016-09-20T19:00:28Z,1474398029,2016,19,1,264.792,264.792,86.903,60.1448,1007.3,-5.4,-5.3,yes,yes,yes,300234064011000,Snow_Buoy,AWI-USIABP,unknown,North
2016-09-20T20:00:57Z,1474401658,2016,20,1,264.834,264.834,86.984,59.5374,1008.4,-5.5,-5.1,yes,yes,yes,300234064011000,Snow_Buoy,AWI-USIABP,unknown,North
2016-09-20T21:01:26Z,1474405286,2016,21,2,264.876,264.876,86.999,58.1726,1009.9,-4.7,-4.1,yes,yes,yes,300234064011000,Snow_Buoy,AWI-USIABP,unknown,North
2016-09-20T22:01:55Z,1474408915,2016,22,2,264.918,264.918,86.9956,58.161,1010.1,-4.4,-3.8,yes,yes,yes,300234064011000,Snow_Buoy,AWI-USIABP,unknown,North
2016-09-20T23:02:24Z,1474412544,2016,23,2,264.96,264.96,86.9924,58.1574,1010.6,-4.2,-3.6,yes,yes,yes,300234064011000,Snow_Buoy,AWI-USIABP,unknown,North
2016-09-21T00:01:26Z,1474416086,2016,0,2,265.001,265.001,86.989,58.175,1011.1,-4.0,-3.4,yes,yes,yes,300234064011000,Snow_Buoy,AWI-USIABP,unknown,North
2016-09-21T01:01:55Z,1474419715,2016,1,2,265.043,265.043,86.9868,58.191,1011.3,-3.9,-3.3,yes,yes,yes,300234064011000,Snow_Buoy,AWI-USIABP,unknown,North
2016-09-21T02:00:57Z,1474423258,2016,2,1,265.084,265.084,86.9846,58.2148,1011.5,-3.8,-3.2,yes,yes,yes,300234064011000,Snow_Buoy,AWI-USIABP,unknown,North
2016-09-21T03:00:00Z,1474426800,2016,3,0,265.125,265.125,86.9818,58.2424,1011.8,-3.8,-3.3,yes,yes,yes,300234064011000,Snow_Buoy,AWI-USIABP,unknown,North
2016-09-21T04:00:28Z,1474430429,2016,4,1,265.167,265.167,86.9796,58.262,1012.0,-3.7,-3.1,yes,yes,yes,300234064011000,Snow_Buoy,AWI-USIABP,unknown,North
2016-09-21T05:00:57Z,1474434058,2016,5,1,265.209,265.209,87.0166,58.2452,1012.5,-3.5,-2.8,yes,yes,yes,300234064011000,Snow_Buoy,AWI-USIABP,unknown,North
2016-09-21T06:00:00Z,1474437600,2016,6,0,265.25,265.25,87.0136,58.2758,1012.6,-3.4,-3.1,yes,yes,yes,300234064011000,Snow_Buoy,AWI-USIABP,unknown,North
2016-09-21T07:00:28Z,1474441229,2016,7,1,265.292,265.292,87.014,58.305,1012.7,-3.4,-3.0,yes,yes,yes,300234064011000,Snow_Buoy,AWI-USIABP,unknown,North
2016-09-21T07:59:31Z,1474444771,2016,8,0,265.333,265.333,87.012,58.3312,1012.2,-3.5,-3.4,yes,yes,yes,300234064011000,Snow_Buoy,AWI-USIABP,unknown,North
2016-09-21T09:00:00Z,1474448400,2016,9,0,265.375,265.375,87.0028,57.9544,1012.6,-3.8,-3.3,yes,yes,yes,300234064011000,Snow_Buoy,AWI-USIABP,unknown,North
2016-09-21T10:00:28Z,1474452029,2016,10,1,265.417,265.417,86.9922,57.719,1013.0,-3.5,-3.2,yes,yes,yes,300234064011000,Snow_Buoy,AWI-USIABP,unknown,North
2016-09-21T11:00:57Z,1474455658,2016,11,1,265.459,265.459,86.9932,57.7898,1012.7,-3.2,-2.9,yes,yes,yes,300234064011000,Snow_Buoy,AWI-USIABP,unknown,North
2016-09-21T12:00:00Z,1474459200,2016,12,0,265.5,265.5,86.9938,57.875,1012.3,-3.0,-2.7,yes,yes,yes,300234064011000,Snow_Buoy,AWI-USIABP,unknown,North
2016-09-21T13:00:28Z,1474462829,2016,13,0,265.542,265.542,86.994,57.9608,1011.9,-2.9,-2.6,yes,yes,yes,300234064011000,Snow_Buoy,AWI-USIABP,unknown,North
2016-09-21T14:00:57Z,1474466458,2016,14,1,265.584,265.584,86.994,58.0468,1011.2,-2.8,-2.6,yes,yes,yes,300234064011000,Snow_Buoy,AWI-USIABP,unknown,North
2016-09-21T15:00:00Z,1474470000,2016,15,0,265.625,265.625,86.9932,58.129,1010.6,-2.8,-2.6,yes,yes,yes,300234064011000,Snow_Buoy,AWI-USIABP,unknown,North
2016-09-21T16:00:28Z,1474473629,2016,16,1,265.667,265.667,86.992,58.2062,1010.4,-2.7,-2.5,yes,yes,yes,300234064011000,Snow_Buoy,AWI-USIABP,unknown,North
2016-09-21T17:00:57Z,1474477258,2016,17,1,265.709,265.709,86.9898,58.268,1009.7,-2.8,-2.8,yes,yes,yes,300234064011000,Snow_Buoy,AWI-USIABP,unknown,North
2016-09-21T18:01:26Z,1474480886,2016,18,1,265.751,265.751,86.9876,58.3074,1009.5,-3.1,-3.0,yes,yes,yes,300234064011000,Snow_Buoy,AWI-USIABP,unknown,North
2016-09-21T19:03:21Z,1474484602,2016,19,3,265.794,265.794,86.9828,58.327,1010.3,-2.2,-3.2,yes,yes,yes,300234064011000,Snow_Buoy,AWI-USIABP,unknown,North
2016-09-21T19:59:31Z,1474487971,2016,20,0,265.833,265.833,86.9806,58.3258,1010.0,-0.9,-3.3,yes,yes,yes,300234064011000,Snow_Buoy,AWI-USIABP,unknown,North
2016-09-21T21:00:00Z,1474491600,2016,21,0,265.875,265.875,86.979,58.3138,1010.1,-0.8,-3.3,yes,yes,yes,300234064011000,Snow_Buoy,AWI-USIABP,unknown,North
2016-09-21T22:00:28Z,1474495229,2016,22,0,265.917,265.917,86.9786,58.3014,1009.2,-0.6,-3.2,yes,yes,yes,300234064011000,Snow_Buoy,AWI-USIABP,unknown,North
2016-09-21T22:59:31Z,1474498771,2016,23,0,265.958,265.958,86.9792,58.2944,1008.8,-0.5,-3.1,yes,yes,yes,300234064011000,Snow_Buoy,AWI-USIABP,unknown,North
2016-09-22T00:00:00Z,1474502400,2016,0,0,266.0,266.0,86.9804,58.3006,1008.4,-0.5,-3.1,yes,yes,yes,300234064011000,Snow_Buoy,AWI-USIABP,unknown,North
2016-09-22T01:00:28Z,1474506029,2016,1,0,266.042,266.042,86.9824,58.3212,1007.8,-0.4,-3.2,yes,yes,yes,300234064011000,Snow_Buoy,AWI-USIABP,unknown,North
2016-09-22T01:59:31Z,1474509571,2016,2,0,266.083,266.083,86.984,58.3536,1007.2,-0.4,-3.4,yes,yes,yes,300234064011000,Snow_Buoy,AWI-USIABP,unknown,North
2016-09-22T03:00:00Z,1474513200,2016,3,0,266.125,266.125,86.9848,58.418,1006.5,-0.3,-3.6,yes,yes,yes,300234064011000,Snow_Buoy,AWI-USIABP,unknown,North
2016-09-22T04:00:28Z,1474516829,2016,4,0,266.167,266.167,86.985,58.4876,1005.9,-0.3,-4.0,yes,yes,yes,300234064011000,Snow_Buoy,AWI-USIABP,unknown,North
2016-09-22T04:59:31Z,1474520371,2016,5,0,266.208,266.208,86.985,58.568,1005.7,-0.3,-4.3,yes,yes,yes,300234064011000,Snow_Buoy,AWI-USIABP,unknown,North
2016-09-22T06:00:00Z,1474524000,2016,6,0,266.25,266.25,86.9842,58.655,1005.5,-0.4,-4.8,yes,yes,yes,300234064011000,Snow_Buoy,AWI-USIABP,unknown,North
2016-09-22T07:00:28Z,1474527629,2016,7,0,266.292,266.292,86.9838,58.7538,1004.9,-0.4,-5.5,yes,yes,yes,300234064011000,Snow_Buoy,AWI-USIABP,unknown,North
2016-09-22T07:59:31Z,1474531171,2016,8,0,266.333,266.333,86.9844,58.8466,1005.0,-0.4,-5.4,yes,yes,yes,300234064011000,Snow_Buoy,AWI-USIABP,unknown,North
2016-09-22T09:00:00Z,1474534800,2016,9,0,266.375,266.375,86.986,58.9518,1004.5,-0.4,-5.2,yes,yes,yes,300234064011000,Snow_Buoy,AWI-USIABP,unknown,North
2016-09-22T10:00:28Z,1474538429,2016,10,0,266.417,266.417,86.9866,59.063,1004.1,-0.5,-6.1,yes,yes,yes,300234064011000,Snow_Buoy,AWI-USIABP,unknown,North
2016-09-22T10:59:31Z,1474541971,2016,11,0,266.458,266.458,86.988,59.1724,1003.7,-0.5,-6.0,yes,yes,yes,300234064011000,Snow_Buoy,AWI-USIABP,unknown,North
2016-09-22T12:00:00Z,1474545600,2016,12,0,266.5,266.5,86.9882,59.301,1003.8,-0.5,-5.4,yes,yes,yes,300234064011000,Snow_Buoy,AWI-USIABP,unknown,North
2016-09-22T13:00:28Z,1474549229,2016,13,0,266.542,266.542,86.9862,59.424,1003.6,-0.5,-4.8,yes,yes,yes,300234064011000,Snow_Buoy,AWI-USIABP,unknown,North
2016-09-22T13:59:31Z,1474552771,2016,14,0,266.583,266.583,86.9822,59.5414,1003.3,-0.5,-5.0,yes,yes,yes,300234064011000,Snow_Buoy,AWI-USIABP,unknown,North
2016-09-22T15:00:00Z,1474556400,2016,15,0,266.625,266.625,86.9774,59.6384,1003.1,-0.5,-6.0,yes,yes,yes,300234064011000,Snow_Buoy,AWI-USIABP,unknown,North
2016-09-22T16:00:28Z,1474560029,2016,16,0,266.667,266.667,86.9716,59.7096,1003.6,-0.6,-5.8,yes,yes,yes,300234064011000,Snow_Buoy,AWI-USIABP,unknown,North
2016-09-22T16:59:31Z,1474563571,2016,17,0,266.708,266.708,86.966,59.7498,1003.7,-0.6,-5.8,yes,yes,yes,300234064011000,Snow_Buoy,AWI-USIABP,unknown,North
2016-09-22T18:00:00Z,1474567200,2016,18,0,266.75,266.75,86.9616,59.7672,1003.8,-0.6,-6.0,yes,yes,yes,300234064011000,Snow_Buoy,AWI-USIABP,unknown,North
2016-09-22T19:00:28Z,1474570829,2016,19,0,266.792,266.792,86.959,59.7792,1004.0,-0.6,-6.1,yes,yes,yes,300234064011000,Snow_Buoy,AWI-USIABP,unknown,North
2016-09-22T19:59:31Z,1474574371,2016,20,0,266.833,266.833,86.9576,59.7942,1004.4,-0.6,-6.7,yes,yes,yes,300234064011000,Snow_Buoy,AWI-USIABP,unknown,North
2016-09-22T21:00:00Z,1474578000,2016,21,0,266.875,266.875,86.957,59.8086,1004.6,-0.7,-7.8,yes,yes,yes,300234064011000,Snow_Buoy,AWI-USIABP,unknown,North
2016-09-22T22:00:28Z,1474581629,2016,22,0,266.917,266.917,86.9572,59.8244,1004.7,-0.7,-8.6,yes,yes,yes,300234064011000,Snow_Buoy,AWI-USIABP,unknown,North
2016-09-22T23:00:57Z,1474585258,2016,23,1,266.959,266.959,86.958,59.8468,1005.0,-0.8,-9.2,yes,yes,yes,300234064011000,Snow_Buoy,AWI-USIABP,unknown,North
2016-09-23T00:00:00Z,1474588800,2016,0,0,267.0,267.0,86.958,59.8746,1005.0,-0.8,-9.5,yes,yes,yes,300234064011000,Snow_Buoy,AWI-USIABP,unknown,North
2016-09-23T01:00:28Z,1474592429,2016,1,1,267.042,267.042,86.9572,59.905,1005.1,-0.9,-9.0,yes,yes,yes,300234064011000,Snow_Buoy,AWI-USIABP,unknown,North
2016-09-23T01:59:31Z,1474595971,2016,2,0,267.083,267.083,86.9564,59.9318,1005.0,-0.9,-8.6,yes,yes,yes,300234064011000,Snow_Buoy,AWI-USIABP,unknown,North
2016-09-23T03:00:00Z,1474599600,2016,3,0,267.125,267.125,86.956,59.96,1004.8,-0.9,-8.0,yes,yes,yes,300234064011000,Snow_Buoy,AWI-USIABP,unknown,North
2016-09-23T04:00:28Z,1474603229,2016,4,0,267.167,267.167,86.9564,59.9952,1004.4,-0.9,-7.2,yes,yes,yes,300234064011000,Snow_Buoy,AWI-USIABP,unknown,North
2016-09-23T04:59:31Z,1474606771,2016,5,0,267.208,267.208,86.9572,60.0416,1004.4,-0.9,-6.4,yes,yes,yes,300234064011000,Snow_Buoy,AWI-USIABP,unknown,North
2016-09-23T06:00:00Z,1474610400,2016,6,0,267.25,267.25,86.9588,60.0962,1003.9,-0.9,-6.2,yes,yes,yes,300234064011000,Snow_Buoy,AWI-USIABP,unknown,North
2016-09-23T07:00:28Z,1474614029,2016,7,0,267.292,267.292,86.9618,60.1518,1003.4,-0.9,-6.3,yes,yes,yes,300234064011000,Snow_Buoy,AWI-USIABP,unknown,North
2016-09-23T07:59:31Z,1474617571,2016,8,0,267.333,267.333,86.9658,60.21,1002.7,-0.8,-6.2,yes,yes,yes,300234064011000,Snow_Buoy,AWI-USIABP,unknown,North
2016-09-23T09:01:26Z,1474621286,2016,9,1,267.376,267.376,86.9696,60.2916,1002.5,-0.8,-5.6,yes,yes,yes,300234064011000,Snow_Buoy,AWI-USIABP,unknown,North
2016-09-23T10:00:28Z,1474624829,2016,10,0,267.417,267.417,86.9716,60.3906,1001.9,-0.8,-6.4,yes,yes,yes,300234064011000,Snow_Buoy,AWI-USIABP,unknown,North
2016-09-23T10:59:31Z,1474628371,2016,11,0,267.458,267.458,86.9712,60.4778,1001.7,-0.8,-6.0,yes,yes,yes,300234064011000,Snow_Buoy,AWI-USIABP,unknown,North
2016-09-23T12:00:00Z,1474632000,2016,12,0,267.5,267.5,86.9688,60.5386,1001.6,-0.8,-5.6,yes,yes,yes,300234064011000,Snow_Buoy,AWI-USIABP,unknown,North
2016-09-23T13:00:28Z,1474635629,2016,13,1,267.542,267.542,86.9648,60.5654,1001.8,-0.8,-5.0,yes,yes,yes,300234064011000,Snow_Buoy,AWI-USIABP,unknown,North
2016-09-23T14:02:24Z,1474639344,2016,14,2,267.585,267.585,86.9594,60.568,1001.8,-0.7,-4.9,yes,yes,yes,300234064011000,Snow_Buoy,AWI-USIABP,unknown,North
2016-09-23T15:00:00Z,1474642800,2016,15,0,267.625,267.625,86.953,60.556,1002.0,-0.7,-5.8,yes,yes,yes,300234064011000,Snow_Buoy,AWI-USIABP,unknown,North
2016-09-23T16:00:28Z,1474646429,2016,16,0,267.667,267.667,86.9474,60.5224,1002.8,-0.7,-6.4,yes,yes,yes,300234064011000,Snow_Buoy,AWI-USIABP,unknown,North
2016-09-23T16:59:31Z,1474649971,2016,17,0,267.708,267.708,86.9432,60.472,1003.5,-0.8,-7.7,yes,yes,yes,300234064011000,Snow_Buoy,AWI-USIABP,unknown,North
2016-09-23T18:00:00Z,1474653600,2016,18,0,267.75,267.75,86.9408,60.4044,1004.4,-0.8,-8.7,yes,yes,yes,300234064011000,Snow_Buoy,AWI-USIABP,unknown,North
2016-09-23T19:00:28Z,1474657229,2016,19,0,267.792,267.792,86.9396,60.3394,1006.0,-0.9,-7.8,yes,yes,yes,300234064011000,Snow_Buoy,AWI-USIABP,unknown,North
2016-09-23T19:59:31Z,1474660771,2016,20,0,267.833,267.833,86.939,60.2912,1006.8,-0.9,-7.8,yes,yes,yes,300234064011000,Snow_Buoy,AWI-USIABP,unknown,North
2016-09-23T21:00:00Z,1474664400,2016,21,0,267.875,267.875,86.9388,60.2746,1007.2,-0.9,-9.0,yes,yes,yes,300234064011000,Snow_Buoy,AWI-USIABP,unknown,North
2016-09-23T22:00:28Z,1474668029,2016,22,0,267.917,267.917,86.938,60.2976,1007.9,-0.9,-9.2,yes,yes,yes,300234064011000,Snow_Buoy,AWI-USIABP,unknown,North
2016-09-23T23:00:57Z,1474671658,2016,23,1,267.959,267.959,86.9358,60.368,1008.4,-1.0,-8.3,yes,yes,yes,300234064011000,Snow_Buoy,AWI-USIABP,unknown,North
2016-09-24T00:00:00Z,1474675200,2016,0,0,268.0,268.0,86.9316,60.4498,1008.5,-1.0,-7.5,yes,yes,yes,300234064011000,Snow_Buoy,AWI-USIABP,unknown,North
2016-09-24T01:00:28Z,1474678829,2016,1,0,268.042,268.042,86.926,60.5292,1008.2,-1.0,-7.1,yes,yes,yes,300234064011000,Snow_Buoy,AWI-USIABP,unknown,North